GFSFLT2_prec_pwat_000.txt.gz
Precipitable_Water
0.79 0.77 0.72 0.71 0.73 0.77 0.77 0.77 0.76 0.70 0.71 0.76 0.80 0.77 0.75 0.70 0.72 0.67 0.62 0.61 0.64 0.63 0.60 0.57 0.55 0.55 0.55 0.56 0.55 0.57 0.63 0.80
0.91 0.87 0.82 0.87 0.73 0.62 0.66 0.66 0.66 0.67 0.75 0.80 0.84 0.97 0.96 0.92 0.87 0.79 0.72 0.65 0.69 0.71 0.70 0.64 0.61 0.63 0.72 0.73 0.67 0.65 0.83 0.81
0.91 0.89 0.88 0.97 0.89 0.71 0.77 0.70 0.84 0.92 1.01 0.93 1.09 1.11 1.12 1.07 0.98 1.01 0.98 0.96 0.93 0.91 0.88 0.84 0.82 0.83 0.80 0.80 0.78 0.85 0.92 0.84
0.98 0.92 0.84 0.78 0.90 0.95 1.01 0.98 1.03 1.06 1.07 1.06 1.23 1.09 1.07 1.06 1.10 1.07 1.06 1.02 1.00 0.96 0.91 0.91 0.91 0.86 0.79 0.83 0.85 0.86 0.80 0.75
1.10 0.93 0.84 1.00 0.89 0.99 1.05 1.06 1.01 1.07 1.12 1.06 1.03 1.00 1.10 1.07 1.06 1.08 1.03 1.02 1.03 0.94 0.94 0.92 0.89 0.82 0.71 0.70 0.73 0.75 0.75 0.81
1.13 0.93 0.85 0.84 1.00 1.00 1.01 1.03 1.00 1.04 1.05 1.09 0.99 0.97 0.94 0.86 0.87 0.81 0.82 0.82 0.82 0.86 0.83 0.82 0.79 0.77 0.65 0.60 0.61 0.66 0.63 0.65
1.07 1.05 0.87 0.90 0.77 0.99 0.97 0.97 1.08 0.95 1.04 1.02 0.93 0.91 0.87 0.84 0.81 0.78 0.78 0.80 0.79 0.78 0.77 0.78 0.78 0.70 0.62 0.56 0.56 0.59 0.58 0.58
1.11 1.22 1.13 0.92 0.91 0.95 1.01 1.01 0.97 0.98 0.96 0.93 0.91 0.89 0.84 0.81 0.78 0.80 0.80 0.82 0.82 0.78 0.77 0.79 0.79 0.77 0.70 0.63 0.57 0.57 0.56 0.58
1.29 1.48 1.20 1.04 0.88 0.92 0.98 0.90 0.84 0.90 0.92 0.95 0.94 0.93 0.87 0.86 0.85 0.85 0.88 0.88 0.84 0.80 0.81 0.81 0.77 0.79 0.75 0.72 0.67 0.62 0.60 0.58
1.37 1.47 1.13 1.00 0.93 0.93 0.91 0.94 0.91 0.94 0.99 0.96 0.97 0.97 0.93 0.88 0.86 0.84 0.87 0.88 0.83 0.81 0.75 0.72 0.74 0.73 0.72 0.72 0.69 0.68 0.64 0.62
1.17 1.23 1.00 0.96 0.95 0.91 0.95 0.95 0.93 0.94 0.91 0.92 0.92 0.92 0.90 0.88 0.85 0.84 0.84 0.84 0.82 0.81 0.79 0.78 0.79 0.76 0.70 0.67 0.66 0.70 0.68 0.64
0.94 1.10 0.96 1.00 1.03 0.96 0.93 0.89 0.88 0.92 0.90 0.90 0.90 0.90 0.91 0.84 0.83 0.82 0.85 0.84 0.78 0.75 0.76 0.75 0.63 0.60 0.61 0.62 0.63 0.59 0.59 0.60
0.92 0.98 1.03 1.04 1.00 0.84 0.80 0.79 0.84 0.86 0.86 0.84 0.83 0.85 0.83 0.83 0.80 0.81 0.76 0.72 0.71 0.68 0.62 0.57 0.56 0.60 0.56 0.57 0.57 0.61 0.71 0.74
0.93 0.95 0.91 0.87 0.86 0.84 0.83 0.82 0.81 0.80 0.84 0.82 0.83 0.83 0.85 0.85 0.80 0.75 0.72 0.68 0.64 0.62 0.63 0.57 0.51 0.51 0.47 0.47 0.40 0.45 0.53 0.55
0.80 0.81 0.83 0.85 0.84 0.85 0.82 0.79 0.76 0.74 0.78 0.85 0.85 0.86 0.84 0.74 0.70 0.67 0.64 0.61 0.55 0.51 0.51 0.48 0.48 0.50 0.52 0.49 0.41 0.39 0.45 0.50
0.81 0.81 0.81 0.82 0.82 0.78 0.74 0.72 0.72 0.81 0.82 0.79 0.75 0.71 0.67 0.65 0.63 0.60 0.57 0.57 0.51 0.52 0.53 0.51 0.48 0.43 0.47 0.51 0.50 0.48 0.40 0.35
0.81 0.81 0.81 0.79 0.78 0.77 0.77 0.79 0.81 0.76 0.69 0.65 0.64 0.65 0.63 0.60 0.55 0.54 0.54 0.52 0.51 0.51 0.51 0.50 0.52 0.52 0.50 0.47 0.46 0.46 0.48 0.43
0.82 0.77 0.74 0.76 0.79 0.80 0.76 0.67 0.63 0.63 0.64 0.62 0.61 0.60 0.56 0.55 0.55 0.52 0.53 0.53 0.52 0.53 0.56 0.57 0.55 0.53 0.51 0.50 0.46 0.40 0.36 0.37
0.79 0.78 0.76 0.76 0.74 0.72 0.69 0.68 0.67 0.65 0.63 0.61 0.58 0.53 0.55 0.52 0.53 0.51 0.52 0.51 0.51 0.50 0.48 0.52 0.50 0.46 0.47 0.46 0.48 0.45 0.43 0.41
0.75 0.74 0.71 0.72 0.72 0.71 0.71 0.69 0.66 0.64 0.63 0.61 0.56 0.52 0.53 0.52 0.51 0.46 0.46 0.44 0.45 0.44 0.43 0.45 0.47 0.46 0.46 0.47 0.44 0.44 0.44 0.43

GFSFLT2_prec_pwat_006.txt.gz
Precipitable_Water
0.94 0.93 0.90 0.81 0.76 0.71 0.69 0.66 0.61 0.61 0.65 0.67 0.69 0.75 0.75 0.74 0.78 0.82 0.81 0.79 0.79 0.77 0.75 0.74 0.72 0.70 0.71 0.70 0.74 0.79 0.85 0.88
0.78 0.76 0.68 0.59 0.61 0.61 0.60 0.60 0.63 0.68 0.72 0.86 0.89 0.85 0.85 0.86 0.85 0.85 0.84 0.84 0.84 0.81 0.79 0.77 0.76 0.75 0.74 0.69 0.71 0.80 0.86 0.89
0.79 0.73 0.72 0.65 0.61 0.64 0.71 0.77 0.82 0.85 0.91 0.96 0.94 0.93 0.90 0.92 0.91 0.89 0.88 0.87 0.86 0.86 0.85 0.84 0.80 0.77 0.75 0.70 0.61 0.67 0.74 0.77
0.84 0.77 0.72 0.77 0.86 0.84 0.89 0.92 0.95 0.93 0.99 0.98 0.97 0.98 0.99 0.95 0.93 0.89 0.87 0.89 0.87 0.88 0.88 0.88 0.86 0.82 0.81 0.77 0.64 0.56 0.55 0.60
0.95 0.82 0.79 0.84 0.87 0.94 0.99 1.03 1.03 1.04 1.03 0.96 0.99 1.01 0.97 0.94 0.88 0.83 0.84 0.85 0.85 0.87 0.87 0.86 0.83 0.81 0.80 0.77 0.72 0.67 0.62 0.58
1.04 0.93 0.87 0.89 0.94 1.00 1.05 1.09 1.11 1.11 1.08 1.02 0.92 0.91 0.84 0.79 0.78 0.81 0.82 0.84 0.82 0.84 0.82 0.81 0.80 0.77 0.78 0.76 0.71 0.67 0.66 0.64
1.07 0.99 0.94 0.95 0.99 1.12 1.14 1.10 1.11 1.14 1.10 1.04 0.87 0.82 0.81 0.86 0.87 0.87 0.88 0.90 0.87 0.84 0.85 0.82 0.78 0.77 0.79 0.74 0.72 0.73 0.70 0.69
1.12 0.96 1.08 1.08 1.09 1.14 1.15 1.16 1.13 1.08 1.01 0.96 0.90 0.87 0.91 0.93 0.92 0.89 0.86 0.89 0.89 0.86 0.83 0.82 0.79 0.80 0.78 0.76 0.76 0.78 0.79 0.77
1.04 1.07 1.11 1.04 1.10 1.11 1.12 1.06 1.07 1.01 0.99 0.96 0.95 0.93 0.97 0.98 0.90 0.83 0.81 0.80 0.80 0.78 0.77 0.80 0.78 0.75 0.71 0.71 0.75 0.73 0.79 0.73
1.16 1.07 1.09 1.11 1.05 1.05 1.15 1.00 0.99 0.97 0.99 0.97 0.95 0.97 0.98 0.93 0.86 0.81 0.81 0.78 0.76 0.74 0.70 0.68 0.70 0.70 0.67 0.68 0.70 0.73 0.72 0.72
1.13 1.29 1.18 1.14 1.09 1.10 1.00 1.00 1.02 1.02 0.93 0.90 0.95 0.95 0.93 0.86 0.81 0.78 0.77 0.76 0.69 0.67 0.64 0.62 0.60 0.59 0.58 0.58 0.59 0.60 0.61 0.61
1.24 1.21 1.20 1.18 1.10 1.03 0.99 1.01 0.97 0.92 0.90 0.90 0.90 0.86 0.83 0.79 0.77 0.78 0.76 0.69 0.65 0.64 0.59 0.58 0.57 0.55 0.51 0.47 0.46 0.46 0.49 0.57
1.13 1.15 1.16 1.02 0.94 0.94 0.95 0.87 0.88 0.88 0.89 0.89 0.86 0.85 0.83 0.80 0.76 0.71 0.68 0.64 0.62 0.60 0.58 0.55 0.50 0.49 0.42 0.40 0.41 0.40 0.43 0.45
0.98 0.95 0.95 0.96 0.97 0.96 0.90 0.86 0.85 0.88 0.91 0.86 0.84 0.77 0.73 0.66 0.64 0.62 0.62 0.59 0.58 0.57 0.56 0.51 0.50 0.52 0.44 0.41 0.31 0.34 0.39 0.46
0.83 0.84 0.85 0.87 0.86 0.84 0.83 0.84 0.84 0.80 0.76 0.75 0.72 0.67 0.64 0.60 0.58 0.56 0.56 0.56 0.53 0.53 0.54 0.52 0.47 0.50 0.50 0.44 0.34 0.32 0.39 0.43
0.72 0.73 0.74 0.75 0.76 0.74 0.73 0.72 0.67 0.68 0.65 0.63 0.60 0.60 0.56 0.55 0.56 0.56 0.56 0.56 0.54 0.54 0.54 0.48 0.43 0.38 0.44 0.47 0.49 0.44 0.32 0.32
0.69 0.70 0.70 0.72 0.70 0.66 0.63 0.59 0.57 0.60 0.59 0.57 0.58 0.61 0.60 0.57 0.58 0.59 0.57 0.54 0.46 0.44 0.44 0.44 0.44 0.41 0.39 0.40 0.39 0.39 0.40 0.33
0.69 0.68 0.68 0.69 0.68 0.67 0.65 0.60 0.59 0.58 0.57 0.55 0.57 0.60 0.58 0.59 0.62 0.54 0.51 0.48 0.42 0.41 0.41 0.41 0.41 0.42 0.41 0.40 0.37 0.35 0.34 0.33
0.73 0.74 0.73 0.72 0.70 0.67 0.66 0.63 0.60 0.58 0.59 0.60 0.61 0.57 0.64 0.55 0.54 0.50 0.49 0.46 0.39 0.39 0.38 0.37 0.37 0.38 0.40 0.40 0.41 0.42 0.43 0.39
0.73 0.72 0.71 0.73 0.70 0.68 0.67 0.65 0.65 0.64 0.65 0.65 0.67 0.62 0.59 0.54 0.51 0.46 0.42 0.39 0.33 0.32 0.29 0.29 0.29 0.28 0.30 0.33 0.35 0.38 0.42 0.42

GFSFLT2_prec_pwat_012.txt.gz
Precipitable_Water
1.05 1.04 1.00 0.97 0.91 0.86 0.77 0.71 0.66 0.69 0.72 0.82 0.81 0.80 0.82 0.82 0.80 0.79 0.77 0.77 0.77 0.75 0.75 0.74 0.73 0.73 0.72 0.70 0.64 0.56 0.55 0.61
0.99 0.94 0.89 0.83 0.82 0.75 0.70 0.69 0.71 0.77 0.86 0.88 0.88 0.88 0.86 0.85 0.84 0.83 0.84 0.83 0.83 0.84 0.83 0.81 0.79 0.78 0.75 0.73 0.72 0.65 0.60 0.57
0.81 0.78 0.80 0.78 0.76 0.73 0.73 0.73 0.76 0.85 0.90 0.91 0.91 0.89 0.87 0.86 0.87 0.86 0.87 0.89 0.89 0.90 0.91 0.90 0.88 0.86 0.83 0.81 0.76 0.70 0.66 0.62
0.76 0.75 0.70 0.73 0.73 0.75 0.78 0.80 0.86 0.94 0.97 0.99 0.96 0.95 0.93 0.89 0.88 0.88 0.89 0.92 0.92 0.92 0.91 0.92 0.91 0.89 0.86 0.85 0.82 0.79 0.75 0.71
0.74 0.73 0.74 0.72 0.75 0.84 0.85 0.91 0.93 1.01 1.01 1.03 1.03 1.00 0.97 0.91 0.88 0.87 0.87 0.89 0.87 0.87 0.86 0.84 0.84 0.82 0.80 0.78 0.78 0.79 0.79 0.77
0.77 0.77 0.82 0.85 0.89 0.91 0.95 1.01 1.05 1.05 1.06 1.00 0.96 0.96 0.92 0.89 0.86 0.84 0.87 0.89 0.86 0.85 0.82 0.81 0.78 0.77 0.77 0.73 0.74 0.72 0.74 0.78
0.91 0.86 0.87 0.94 0.98 1.05 1.08 1.12 1.13 1.13 1.15 1.09 1.02 0.99 0.94 0.92 0.90 0.92 0.95 0.93 0.87 0.81 0.77 0.75 0.74 0.72 0.69 0.67 0.66 0.65 0.65 0.67
1.07 1.07 0.99 1.06 1.12 1.15 1.21 1.29 1.27 1.26 1.26 1.17 1.14 1.07 1.03 0.99 0.97 0.95 0.92 0.90 0.87 0.80 0.75 0.72 0.70 0.68 0.63 0.64 0.63 0.63 0.61 0.64
1.10 1.22 1.20 1.21 1.24 1.32 1.36 1.41 1.36 1.33 1.29 1.23 1.20 1.12 1.06 1.02 0.95 0.92 0.90 0.88 0.82 0.77 0.72 0.68 0.63 0.60 0.56 0.56 0.55 0.54 0.54 0.56
1.20 1.32 1.35 1.37 1.37 1.32 1.35 1.26 1.31 1.26 1.19 1.14 1.09 1.02 0.99 0.96 0.93 0.91 0.86 0.78 0.75 0.69 0.66 0.61 0.59 0.54 0.50 0.50 0.50 0.49 0.48 0.53
1.19 1.32 1.32 1.39 1.38 1.37 1.28 1.19 1.15 1.10 1.09 1.04 1.01 0.97 0.95 0.90 0.85 0.79 0.81 0.75 0.66 0.60 0.57 0.54 0.49 0.48 0.47 0.49 0.49 0.47 0.45 0.52
1.24 1.28 1.32 1.36 1.28 1.17 1.11 1.08 1.05 1.05 1.02 0.98 0.92 0.87 0.83 0.82 0.83 0.76 0.67 0.61 0.59 0.57 0.52 0.51 0.49 0.48 0.45 0.44 0.43 0.45 0.51 0.53
1.18 1.24 1.27 1.18 1.06 1.02 0.98 0.94 0.97 0.94 0.88 0.85 0.84 0.83 0.80 0.71 0.65 0.61 0.60 0.56 0.54 0.53 0.51 0.49 0.47 0.50 0.44 0.41 0.43 0.48 0.48 0.48
1.17 1.08 1.01 1.01 0.99 1.00 0.93 0.81 0.79 0.76 0.75 0.74 0.73 0.68 0.63 0.59 0.58 0.58 0.57 0.54 0.52 0.53 0.51 0.47 0.47 0.48 0.39 0.36 0.29 0.29 0.37 0.34
0.83 0.83 0.83 0.86 0.83 0.75 0.72 0.73 0.73 0.71 0.69 0.65 0.64 0.62 0.61 0.61 0.60 0.60 0.58 0.56 0.52 0.54 0.51 0.44 0.38 0.41 0.41 0.33 0.26 0.22 0.28 0.30
0.69 0.70 0.70 0.73 0.74 0.72 0.71 0.68 0.64 0.67 0.63 0.61 0.62 0.64 0.64 0.64 0.63 0.61 0.58 0.55 0.51 0.48 0.48 0.42 0.39 0.31 0.36 0.37 0.37 0.38 0.28 0.23
0.70 0.71 0.72 0.74 0.73 0.70 0.68 0.65 0.66 0.64 0.62 0.62 0.63 0.64 0.62 0.61 0.58 0.56 0.51 0.47 0.45 0.44 0.42 0.40 0.36 0.30 0.29 0.29 0.29 0.31 0.33 0.31
0.73 0.73 0.72 0.69 0.67 0.68 0.68 0.66 0.64 0.62 0.61 0.59 0.60 0.57 0.55 0.50 0.51 0.49 0.47 0.46 0.42 0.40 0.39 0.34 0.30 0.28 0.29 0.29 0.27 0.25 0.24 0.25
0.75 0.74 0.70 0.69 0.69 0.69 0.68 0.64 0.61 0.59 0.57 0.56 0.53 0.48 0.42 0.41 0.44 0.45 0.42 0.39 0.43 0.40 0.39 0.40 0.35 0.31 0.28 0.25 0.27 0.25 0.26 0.25
0.76 0.75 0.72 0.71 0.67 0.63 0.61 0.57 0.55 0.53 0.49 0.44 0.41 0.38 0.39 0.42 0.42 0.39 0.40 0.45 0.43 0.39 0.37 0.31 0.31 0.27 0.25 0.24 0.25 0.24 0.25 0.23

GFSFLT2_prec_pwat_015.txt.gz
Precipitable_Water
1.42 1.22 1.11 1.05 1.00 0.95 0.85 0.74 0.66 0.74 0.79 0.79 0.78 0.81 0.82 0.82 0.83 0.83 0.81 0.82 0.82 0.82 0.81 0.78 0.77 0.77 0.76 0.72 0.70 0.64 0.62 0.60
1.08 1.07 1.04 0.96 0.94 0.88 0.79 0.75 0.75 0.79 0.86 0.84 0.82 0.83 0.83 0.83 0.83 0.86 0.87 0.87 0.86 0.86 0.85 0.85 0.83 0.81 0.80 0.78 0.76 0.72 0.70 0.66
0.98 0.89 0.90 0.90 0.88 0.86 0.80 0.77 0.81 0.87 0.92 0.91 0.92 0.92 0.91 0.90 0.91 0.92 0.92 0.90 0.89 0.90 0.90 0.91 0.89 0.84 0.81 0.79 0.78 0.77 0.75 0.74
0.87 0.87 0.86 0.91 0.89 0.86 0.84 0.84 0.90 0.96 0.97 0.98 0.98 0.99 0.99 0.97 0.97 0.95 0.94 0.93 0.91 0.90 0.91 0.90 0.87 0.84 0.80 0.77 0.76 0.76 0.74 0.73
0.77 0.80 0.86 0.85 0.85 0.90 0.89 0.91 0.98 1.01 1.03 1.04 1.02 1.03 1.02 0.99 0.97 0.93 0.92 0.93 0.93 0.93 0.91 0.88 0.81 0.78 0.76 0.75 0.72 0.70 0.70 0.70
0.81 0.87 0.87 0.88 0.93 0.96 0.98 1.02 1.06 1.09 1.10 1.09 1.08 1.04 0.98 0.95 0.93 0.94 0.93 0.96 0.92 0.89 0.86 0.84 0.79 0.74 0.70 0.69 0.66 0.62 0.61 0.63
0.91 0.94 0.99 0.99 1.02 1.09 1.14 1.19 1.22 1.25 1.27 1.25 1.17 1.09 1.02 1.02 1.04 1.02 0.98 0.95 0.91 0.85 0.83 0.79 0.74 0.69 0.68 0.65 0.59 0.56 0.54 0.55
1.07 1.01 1.00 1.06 1.11 1.16 1.22 1.36 1.42 1.39 1.41 1.40 1.38 1.24 1.13 1.11 1.05 0.99 0.97 0.97 0.92 0.85 0.79 0.74 0.70 0.65 0.60 0.59 0.55 0.53 0.53 0.52
1.15 1.26 1.24 1.21 1.30 1.35 1.36 1.31 1.31 1.31 1.36 1.39 1.29 1.25 1.14 1.06 1.03 1.00 0.97 0.92 0.83 0.79 0.76 0.70 0.63 0.59 0.55 0.53 0.52 0.52 0.52 0.54
1.22 1.32 1.40 1.39 1.33 1.36 1.21 1.28 1.30 1.28 1.27 1.24 1.18 1.12 1.08 1.05 0.98 0.90 0.86 0.83 0.78 0.74 0.66 0.59 0.58 0.56 0.53 0.52 0.52 0.50 0.51 0.56
1.24 1.33 1.32 1.35 1.35 1.32 1.26 1.22 1.19 1.16 1.13 1.09 1.06 1.02 0.95 0.89 0.84 0.81 0.80 0.75 0.67 0.62 0.57 0.54 0.51 0.49 0.46 0.48 0.46 0.45 0.49 0.55
1.25 1.29 1.30 1.33 1.31 1.20 1.12 1.08 1.05 1.04 1.00 0.93 0.88 0.85 0.82 0.78 0.74 0.69 0.65 0.60 0.57 0.56 0.53 0.53 0.51 0.50 0.45 0.45 0.43 0.45 0.51 0.53
1.22 1.25 1.26 1.21 1.09 1.03 1.00 0.94 0.91 0.82 0.79 0.74 0.71 0.70 0.69 0.67 0.65 0.62 0.61 0.58 0.57 0.56 0.53 0.49 0.47 0.49 0.43 0.39 0.38 0.40 0.42 0.38
1.20 1.13 1.07 0.99 0.96 0.94 0.84 0.76 0.73 0.71 0.70 0.70 0.69 0.67 0.65 0.63 0.63 0.62 0.62 0.60 0.59 0.55 0.50 0.43 0.43 0.42 0.32 0.30 0.24 0.26 0.33 0.36
0.84 0.83 0.84 0.87 0.81 0.73 0.73 0.75 0.73 0.68 0.66 0.65 0.66 0.66 0.66 0.64 0.62 0.61 0.60 0.59 0.52 0.48 0.45 0.41 0.35 0.38 0.38 0.30 0.24 0.22 0.29 0.32
0.76 0.76 0.72 0.71 0.74 0.72 0.67 0.63 0.63 0.67 0.66 0.67 0.68 0.69 0.65 0.63 0.60 0.56 0.52 0.49 0.44 0.41 0.40 0.38 0.35 0.31 0.33 0.37 0.33 0.32 0.25 0.22
0.73 0.75 0.75 0.76 0.72 0.71 0.69 0.68 0.69 0.68 0.67 0.67 0.66 0.66 0.63 0.58 0.53 0.47 0.43 0.40 0.40 0.37 0.35 0.36 0.34 0.32 0.34 0.33 0.31 0.31 0.32 0.29
0.70 0.71 0.72 0.76 0.76 0.76 0.72 0.69 0.66 0.62 0.62 0.60 0.57 0.54 0.49 0.43 0.41 0.41 0.40 0.39 0.39 0.40 0.39 0.41 0.37 0.31 0.27 0.27 0.26 0.25 0.24 0.25
0.71 0.73 0.74 0.77 0.76 0.74 0.68 0.61 0.58 0.54 0.51 0.43 0.38 0.37 0.36 0.38 0.40 0.40 0.42 0.40 0.41 0.43 0.42 0.35 0.32 0.28 0.26 0.25 0.26 0.25 0.25 0.24
0.72 0.73 0.73 0.72 0.67 0.62 0.60 0.56 0.52 0.44 0.38 0.35 0.32 0.29 0.29 0.32 0.36 0.39 0.41 0.43 0.41 0.48 0.40 0.33 0.30 0.27 0.25 0.27 0.25 0.24 0.26 0.25